Theta_e
332 330 333 338 338 338 337 338 339 340 340 340 341 341 341 340 339 339 338 337 335 333 331 329 328 327 326 325 325 326 318 318
330 332 332 334 336 336 336 336 336 336 336 336 336 336 337 337 336 337 336 335 333 331 330 327 325 324 323 321 323 324 318 318
330 329 330 330 332 334 334 335 334 333 333 332 331 332 331 331 333 334 334 333 332 330 328 326 323 321 319 319 318 316 317 318
327 328 328 328 330 331 330 330 328 327 326 324 325 327 328 330 331 332 332 331 330 329 327 325 318 310 311 314 307 315 317 316
322 323 325 326 326 326 328 327 325 325 324 324 326 326 326 325 324 323 323 326 321 322 318 314 314 311 307 306 306 307 307 311
319 319 320 321 322 322 324 325 324 324 325 326 325 323 321 320 319 318 316 316 314 313 314 311 309 308 307 305 305 305 306 308
318 318 318 318 318 319 319 324 323 324 326 327 326 323 320 321 319 319 317 314 313 315 312 311 308 307 306 305 304 304 308 309
318 319 320 321 320 320 321 322 322 324 325 326 326 325 322 321 320 318 317 315 316 314 312 310 308 305 304 304 304 304 308 308
316 316 318 318 318 317 317 318 320 321 323 324 326 326 323 323 320 319 319 317 317 314 312 310 307 306 303 304 303 304 304 308
317 317 315 315 315 315 315 315 317 317 321 322 324 326 325 324 322 321 319 319 316 314 312 309 306 303 302 301 302 303 303 302
315 314 314 314 315 314 314 315 317 315 318 321 324 326 325 323 321 319 318 316 315 314 311 309 305 304 303 303 302 302 302 304
314 313 313 313 313 313 314 316 317 317 320 321 324 324 325 323 320 318 318 315 315 313 310 309 306 305 307 305 302 302 301 301
313 312 313 314 314 314 315 317 318 319 321 323 325 328 327 324 321 319 318 316 314 312 311 307 305 305 303 302 302 301 302 301
314 313 314 315 316 317 317 318 319 319 321 325 326 326 327 324 323 320 318 316 313 312 308 305 304 305 301 300 297 299 301 302
313 314 315 317 319 320 320 317 317 316 317 321 325 327 327 326 323 320 317 316 314 311 308 305 303 304 304 301 295 294 296 299
314 315 316 318 323 322 320 316 315 317 319 323 325 326 327 327 325 322 317 317 314 312 311 308 306 304 302 303 300 297 294 294
315 316 318 324 324 323 321 316 316 316 322 324 325 326 326 326 326 322 318 317 316 313 311 309 310 306 303 300 299 297 296 294
317 318 321 324 324 324 321 316 316 315 318 322 323 324 325 325 324 321 319 318 317 315 313 311 308 305 303 300 299 297 296 297
317 319 321 324 324 325 321 319 317 316 319 322 322 320 319 321 319 317 315 316 316 315 313 309 303 302 301 300 301 300 300 299
319 321 321 322 323 323 323 321 320 320 321 323 322 322 321 318 316 315 315 315 314 312 307 304 303 301 301 301 300 301 302 300
Wind_Speed
11 11 10 11 27 24 22 22 22 22 21 20 21 21 21 22 21 20 18 18 17 15 13 11 6 11 11 12 15 18 10 8
15 12 12 12 16 22 21 23 22 22 19 20 20 20 20 20 20 19 18 16 15 15 12 9 9 11 11 12 14 17 9 9
11 13 15 20 15 16 20 22 22 22 19 19 14 10 13 14 16 17 18 14 13 13 9 9 8 10 9 9 11 6 7 5
10 13 15 16 17 11 7 10 9 10 10 11 8 9 9 12 13 16 15 12 11 9 8 7 8 4 3 7 4 5 6 4
11 12 13 15 13 9 5 4 6 5 7 9 10 9 6 7 6 4 5 6 4 4 4 3 4 3 4 5 7 5 4 3
10 12 12 12 9 9 8 6 4 3 8 11 8 7 7 7 5 4 4 3 4 4 3 4 5 6 6 6 6 5 4 3
13 12 11 11 12 9 8 6 4 4 6 8 7 8 7 5 5 4 4 4 4 4 4 4 4 4 4 5 5 7 6 3
10 13 11 8 8 9 6 7 5 5 5 5 6 7 7 5 5 5 4 5 4 5 5 4 3 4 5 5 5 5 6 5
11 13 14 13 9 8 7 8 5 4 5 4 6 6 6 6 5 5 5 5 6 5 3 3 4 2 5 4 4 4 6 6
11 11 13 13 10 8 8 7 6 3 5 4 4 6 7 6 5 4 5 5 5 4 4 3 3 4 3 3 3 4 4 7
11 11 14 14 11 8 7 8 4 4 5 0 3 5 6 5 5 4 5 4 4 5 2 3 3 3 4 4 5 4 5 4
11 10 11 8 5 4 3 2 3 3 3 6 8 6 7 5 4 5 5 4 4 3 4 3 4 4 3 4 4 4 4 4
11 12 10 8 5 6 6 5 6 8 8 10 10 7 7 6 4 5 5 6 6 6 4 5 1 3 4 1 3 3 5 5
14 13 13 9 8 9 5 7 7 8 5 8 10 9 8 7 6 5 7 5 6 6 5 3 4 4 4 2 1 3 3 4
15 15 15 14 13 8 6 3 3 3 4 4 7 11 10 9 7 5 8 6 6 6 7 8 5 3 4 5 2 4 0 1
18 16 17 16 17 13 13 10 8 9 7 7 7 10 10 11 10 8 10 7 6 8 7 5 5 5 1 3 3 4 3 1
18 19 18 18 17 16 13 12 10 7 6 12 12 10 11 11 12 10 9 7 5 6 5 4 4 5 3 3 3 1 2 3
18 19 20 20 18 20 16 13 12 8 7 10 9 8 10 11 9 8 7 6 7 7 10 7 6 4 3 2 1 3 3 3
18 20 20 23 21 19 16 17 13 15 10 11 11 7 5 8 7 6 4 5 6 5 5 4 6 6 4 2 2 1 1 1
22 21 18 15 15 19 13 17 13 10 10 9 11 10 10 7 5 6 6 6 5 6 5 5 7 7 7 4 3 3 3 4
Wind_Direction
88 65 352 231 136 125 122 121 119 117 117 116 117 120 120 118 119 117 117 117 113 107 98 87 72 57 42 25 42 115 105 104
113 110 63 17 105 101 105 107 108 107 108 105 104 106 108 110 113 117 119 111 118 113 105 116 78 57 40 25 44 94 100 104
116 112 102 90 59 83 84 95 100 103 102 99 98 106 111 109 114 119 114 120 120 116 138 108 95 67 40 16 73 98 100 93
108 111 112 120 116 94 95 101 105 116 115 106 97 93 102 107 108 113 114 123 127 131 109 108 70 55 32 38 66 104 97 98
106 109 121 122 120 122 121 84 121 118 104 110 104 103 104 104 106 106 100 127 115 109 112 69 57 109 72 59 62 85 85 74
103 109 119 120 112 121 121 124 134 104 120 112 122 113 125 116 121 130 123 143 137 142 123 124 98 93 90 80 86 105 105 99
108 102 111 122 123 134 143 116 105 115 112 121 140 126 136 135 126 142 152 163 162 135 127 115 106 95 88 95 76 93 115 112
100 126 140 124 121 134 127 120 122 94 102 127 133 140 149 122 150 163 173 182 159 151 153 142 163 128 89 86 86 106 134 133
107 108 121 114 121 123 114 134 102 103 117 165 148 129 125 146 171 179 177 182 153 148 147 136 152 118 133 129 125 128 133 159
131 127 120 122 135 120 123 127 122 171 190 139 118 126 168 177 172 172 173 159 149 147 153 162 152 158 156 167 173 158 147 131
138 142 140 141 145 144 146 154 199 199 78 80 183 190 190 172 167 161 161 142 150 154 164 157 161 171 167 177 167 171 171 151
150 154 156 145 142 123 141 212 220 229 224 202 195 187 175 149 154 160 156 154 166 163 174 186 171 173 199 171 189 172 193 170
166 170 166 164 158 175 187 209 198 207 213 195 187 173 164 165 172 180 186 177 183 182 167 183 169 151 110 47 282 246 183 197
177 179 173 184 179 190 200 198 210 204 188 177 178 174 173 177 178 188 194 172 184 186 163 161 179 173 150 119 251 329 284 216
181 181 184 187 195 200 212 187 193 181 194 180 186 178 179 182 193 183 200 184 191 191 182 170 176 221 162 147 144 219 210 313
189 190 192 199 198 201 200 200 198 209 203 195 184 183 188 187 185 188 194 193 188 192 189 175 139 171 114 155 120 147 172 261
195 200 208 202 200 201 202 196 197 185 179 185 188 196 191 195 190 195 192 196 189 182 188 201 165 158 185 157 130 152 155 136
202 207 202 202 202 205 196 192 193 195 180 186 188 192 199 198 176 188 186 183 174 162 210 198 148 151 68 26 72 157 184 175
204 209 209 200 206 200 193 183 189 199 188 186 180 179 191 203 169 168 174 169 171 168 184 118 121 93 92 93 51 360 45 248
204 210 211 205 193 202 189 197 203 197 185 182 188 188 190 180 169 155 167 173 149 120 98 79 92 101 129 123 103 348 351 282